Location: Peterborough
(44.3091°N, 78.3197°W)
Time: 16:52:18
(UTC-04:00)

Transit 4A - Pass Details

Date: 31 March 2023
Orbit: 864 x 980 km, 66.8° (Epoch: 04 June)

Event Time Altitude Azimuth Distance (km) Brightness Sun altitude
Rises 13:23:57 0° 333° (NNW) 3,553 10.6 49.9°
Reaches altitude 10° 13:26:54 10° 345° (NNW) 2,629 10.0 49.9°
Maximum altitude 13:31:59 27° 42° (NE) 1,743 9.3 49.8°
Drops below altitude 10° 13:37:10 10° 98° (E) 2,684 10.4 49.7°
Sets 13:40:11 0° 110° (ESE) 3,643 11.1 49.6°
